Location: Newark
(43.0000°N, 1.6781°W)
Time: 07:42:56
(UTC+00:00)

Vanguard 1 - Pass Details

Date: 21 April 2021
Orbit: 649 x 3834 km, 34.2° (Epoch: 04 May)

Event Time Altitude Azimuth Distance (km) Brightness Sun altitude
Rises 19:21:10 0° 281° (W) 7,306 16.7 -5.1°
Reaches altitude 10° 19:26:05 10° 276° (W) 6,558 15.8 -5.9°
Maximum altitude 19:46:19 43° 214° (SW) 4,699 13.6 -9.3°
Drops below altitude 10° 20:05:03 10° 151° (SSE) 6,051 13.6 -12.3°
Enters shadow 20:06:52 - 149° (SSE) 6,318 13.6 -12.6°
